User: anonymous   Login
Location: Unspecified
(0.0000°N, 0.0000°E)
Time: 05:59:55
(UTC+00:00)
Language:

METEOSAT 10 (MSG 3) - Orbit

View from above orbital plane
View from above orbital plane
View from above satellite
View from above satellite

Ground track
Ground track

The orbit data is extracted from the following two-line orbital elements,

1 38552U 12035B   19111.59687101  .00000043  00000-0  00000+0 0  9990
2 38552   1.0037  16.7806 0000597  41.6993  15.0000  1.00268193 25011
Epoch (UTC): 21 April 2019 14:19:29
Eccentricity: 0.0000597
inclination: 1.0037°
perigee height: 35785 km
apogee height: 35790 km
right ascension of ascending node: 16.7806°
argument of perigee: 41.6993°
revolutions per day: 1.00268193
mean anomaly at epoch: 15.0000°
orbit number at epoch: 2501

The dashed part of the orbit path shows where the satellite is in the earth's shadow,  

DLR